Time,TemperatureF,DewpointF,PressureIn,WindDirection,WindDirectionDegrees,WindSpeedMPH,WindSpeedGustMPH,Humidity,HourlyPrecipIn,Conditions,Clouds,dailyrainin,SolarRadiationWatts/m^2,SoftwareType,DateUTC
2013-07-09 00:02:00,78.0,70.0,-100.00,SSE,165,9.0,15.0,77,0.00,,,0.07,0.000000,,2013-07-09 05:02:00,
2013-07-09 00:11:00,78.0,70.0,-100.00,SSE,165,9.0,15.0,77,0.00,,,0.07,0.000000,,2013-07-09 05:11:00,
2013-07-09 00:22:00,78.0,70.0,-100.00,SSE,165,9.0,15.0,77,0.00,,,0.07,0.000000,,2013-07-09 05:22:00,
2013-07-09 00:33:00,78.0,70.0,-100.00,SSE,165,9.0,15.0,77,0.00,,,0.07,0.000000,,2013-07-09 05:33:00,
2013-07-09 01:01:00,77.0,70.0,-100.00,South,187,8.0,13.0,79,0.00,,,0.07,0.000000,,2013-07-09 06:01:00,
2013-07-09 01:11:00,77.0,70.0,-100.00,South,187,8.0,13.0,79,0.00,,,0.07,0.000000,,2013-07-09 06:11:00,
2013-07-09 01:22:00,77.0,70.0,-100.00,South,187,8.0,13.0,79,0.00,,,0.07,0.000000,,2013-07-09 06:22:00,
2013-07-09 01:33:00,77.0,70.0,-100.00,South,187,8.0,13.0,79,0.00,,,0.07,0.000000,,2013-07-09 06:33:00,
2013-07-09 02:02:00,76.0,70.0,-100.00,South,176,9.0,14.0,82,0.00,,,0.07,0.000000,,2013-07-09 07:02:00,
2013-07-09 02:11:00,76.0,70.0,-100.00,South,176,9.0,14.0,82,0.00,,,0.07,0.000000,,2013-07-09 07:11:00,
2013-07-09 02:22:00,76.0,70.0,-100.00,South,176,9.0,14.0,82,0.00,,,0.07,0.000000,,2013-07-09 07:22:00,
2013-07-09 02:34:00,76.0,70.0,-100.00,South,176,9.0,14.0,82,0.00,,,0.07,0.000000,,2013-07-09 07:34:00,
2013-07-09 03:01:00,75.0,71.0,-100.00,South,190,10.0,15.0,87,0.00,,,0.07,0.000000,,2013-07-09 08:01:00,
2013-07-09 03:11:00,75.0,71.0,-100.00,South,190,10.0,15.0,87,0.00,,,0.07,0.000000,,2013-07-09 08:11:00,
2013-07-09 03:22:00,75.0,71.0,-100.00,South,190,10.0,15.0,87,0.00,,,0.07,0.000000,,2013-07-09 08:22:00,
2013-07-09 03:33:00,75.0,71.0,-100.00,South,190,10.0,15.0,87,0.00,,,0.07,0.000000,,2013-07-09 08:33:00,
2013-07-09 04:02:00,74.0,71.0,-100.00,South,188,10.0,17.0,90,0.00,,,0.07,0.000000,,2013-07-09 09:02:00,
2013-07-09 04:12:00,74.0,71.0,-100.00,South,188,10.0,17.0,90,0.00,,,0.07,0.000000,,2013-07-09 09:12:00,
2013-07-09 04:22:00,74.0,71.0,-100.00,South,188,10.0,17.0,90,0.00,,,0.07,0.000000,,2013-07-09 09:22:00,
2013-07-09 04:34:00,74.0,71.0,-100.00,South,188,10.0,17.0,90,0.00,,,0.07,0.000000,,2013-07-09 09:34:00,
2013-07-09 05:01:00,73.0,71.0,-100.00,South,187,9.0,16.0,92,0.00,,,0.07,0.000000,,2013-07-09 10:01:00,
2013-07-09 05:11:00,73.0,71.0,-100.00,South,187,9.0,16.0,92,0.00,,,0.07,0.000000,,2013-07-09 10:11:00,
2013-07-09 05:22:00,73.0,71.0,-100.00,South,187,9.0,16.0,92,0.00,,,0.07,0.000000,,2013-07-09 10:22:00,
2013-07-09 05:33:00,73.0,71.0,-100.00,South,187,9.0,16.0,92,0.00,,,0.07,0.000000,,2013-07-09 10:33:00,
2013-07-09 06:01:00,73.0,71.0,-100.00,South,186,9.0,14.0,93,0.00,,,0.07,0.000000,,2013-07-09 11:01:00,
2013-07-09 06:11:00,73.0,71.0,-100.00,South,186,9.0,14.0,93,0.00,,,0.07,0.000000,,2013-07-09 11:11:00,
2013-07-09 06:22:00,73.0,71.0,-100.00,South,186,9.0,14.0,93,0.00,,,0.07,0.000000,,2013-07-09 11:22:00,
2013-07-09 06:33:00,73.0,71.0,-100.00,South,186,9.0,14.0,93,0.00,,,0.07,0.000000,,2013-07-09 11:33:00,
2013-07-09 07:02:00,73.0,71.0,-100.00,South,184,7.0,14.0,95,0.00,,,0.07,0.000000,,2013-07-09 12:02:00,
2013-07-09 07:11:00,73.0,71.0,-100.00,South,184,7.0,14.0,95,0.00,,,0.07,0.000000,,2013-07-09 12:11:00,
2013-07-09 07:22:00,73.0,71.0,-100.00,South,184,7.0,14.0,95,0.00,,,0.07,0.000000,,2013-07-09 12:22:00,
2013-07-09 07:33:00,73.0,71.0,-100.00,South,184,7.0,14.0,95,0.00,,,0.07,0.000000,,2013-07-09 12:33:00,
2013-07-09 08:01:00,73.0,71.0,-100.00,South,180,9.0,12.0,94,0.00,,,0.07,27.000000,,2013-07-09 13:01:00,
2013-07-09 08:11:00,73.0,71.0,-100.00,South,180,9.0,12.0,94,0.00,,,0.07,27.000000,,2013-07-09 13:11:00,
2013-07-09 08:22:00,73.0,71.0,-100.00,South,180,9.0,12.0,94,0.00,,,0.07,27.000000,,2013-07-09 13:22:00,
2013-07-09 08:33:00,73.0,71.0,-100.00,South,180,9.0,12.0,94,0.00,,,0.07,27.000000,,2013-07-09 13:33:00,
2013-07-09 09:01:00,76.0,71.0,-100.00,South,186,10.0,17.0,84,0.00,,,0.07,171.000000,,2013-07-09 14:01:00,
2013-07-09 09:11:00,76.0,71.0,-100.00,South,186,10.0,17.0,84,0.00,,,0.07,171.000000,,2013-07-09 14:11:00,
2013-07-09 09:22:00,76.0,71.0,-100.00,South,186,10.0,17.0,84,0.00,,,0.07,171.000000,,2013-07-09 14:22:00,
2013-07-09 09:34:00,76.0,71.0,-100.00,South,186,10.0,17.0,84,0.00,,,0.07,171.000000,,2013-07-09 14:34:00,
2013-07-09 10:01:00,80.0,72.0,-100.00,SSW,203,10.0,17.0,76,0.00,,,0.07,337.000000,,2013-07-09 15:01:00,
2013-07-09 10:12:00,80.0,72.0,-100.00,SSW,203,10.0,17.0,76,0.00,,,0.07,337.000000,,2013-07-09 15:12:00,
2013-07-09 10:22:00,80.0,72.0,-100.00,SSW,203,10.0,17.0,76,0.00,,,0.07,337.000000,,2013-07-09 15:22:00,
2013-07-09 10:33:00,80.0,72.0,-100.00,SSW,203,10.0,17.0,76,0.00,,,0.07,337.000000,,2013-07-09 15:33:00,
2013-07-09 11:02:00,85.0,69.0,-100.00,South,171,10.0,16.0,59,0.00,,,0.07,663.000000,,2013-07-09 16:02:00,
2013-07-09 11:11:00,85.0,69.0,-100.00,South,171,10.0,16.0,59,0.00,,,0.07,663.000000,,2013-07-09 16:11:00,
2013-07-09 11:22:00,85.0,69.0,-100.00,South,171,10.0,16.0,59,0.00,,,0.07,663.000000,,2013-07-09 16:22:00,
2013-07-09 11:34:00,85.0,69.0,-100.00,South,171,10.0,16.0,59,0.00,,,0.07,663.000000,,2013-07-09 16:34:00,
2013-07-09 11:35:00,88.0,68.0,-100.00,South,187,11.0,19.0,52,0.00,,,0.06,721.000000,,2013-07-09 16:35:00,
2013-07-09 12:02:00,88.0,68.0,-100.00,South,187,11.0,19.0,52,0.00,,,0.06,721.000000,,2013-07-09 17:02:00,
2013-07-09 12:11:00,88.0,68.0,-100.00,South,187,11.0,19.0,52,0.00,,,0.06,721.000000,,2013-07-09 17:11:00,
2013-07-09 12:22:00,88.0,68.0,-100.00,South,187,11.0,19.0,52,0.00,,,0.06,721.000000,,2013-07-09 17:22:00,
2013-07-09 13:02:00,91.0,66.0,-100.00,South,177,12.0,24.0,44,0.00,,,0.06,869.000000,,2013-07-09 18:02:00,
2013-07-09 13:11:00,91.0,66.0,-100.00,South,177,12.0,24.0,44,0.00,,,0.06,869.000000,,2013-07-09 18:11:00,
2013-07-09 13:22:00,91.0,66.0,-100.00,South,177,12.0,24.0,44,0.00,,,0.06,869.000000,,2013-07-09 18:22:00,
2013-07-09 13:32:00,91.0,66.0,-100.00,South,177,12.0,24.0,44,0.00,,,0.06,869.000000,,2013-07-09 18:32:00,
2013-07-09 14:01:00,93.0,65.0,-100.00,South,185,10.0,20.0,40,0.00,,,0.02,875.000000,,2013-07-09 19:01:00,
2013-07-09 14:11:00,93.0,65.0,-100.00,South,185,10.0,20.0,40,0.00,,,0.02,875.000000,,2013-07-09 19:11:00,
2013-07-09 14:22:00,93.0,65.0,-100.00,South,185,10.0,20.0,40,0.00,,,0.02,875.000000,,2013-07-09 19:22:00,
2013-07-09 14:33:00,93.0,65.0,-100.00,South,185,10.0,20.0,40,0.00,,,0.02,875.000000,,2013-07-09 19:33:00,
2013-07-09 15:01:00,96.0,63.0,-100.00,South,187,12.0,20.0,34,0.00,,,0.00,911.000000,,2013-07-09 20:01:00,
2013-07-09 15:11:00,96.0,63.0,-100.00,South,187,12.0,20.0,34,0.00,,,0.00,911.000000,,2013-07-09 20:11:00,
2013-07-09 15:22:00,96.0,63.0,-100.00,South,187,12.0,20.0,34,0.00,,,0.00,911.000000,,2013-07-09 20:22:00,
2013-07-09 15:32:00,96.0,63.0,-100.00,South,187,12.0,20.0,34,0.00,,,0.00,911.000000,,2013-07-09 20:32:00,
2013-07-09 16:01:00,94.0,63.0,-100.00,SE,125,10.0,19.0,36,0.00,,,0.00,693.000000,,2013-07-09 21:01:00,
2013-07-09 16:11:00,94.0,63.0,-100.00,SE,125,10.0,19.0,36,0.00,,,0.00,693.000000,,2013-07-09 21:11:00,
2013-07-09 16:22:00,94.0,63.0,-100.00,SE,125,10.0,19.0,36,0.00,,,0.00,693.000000,,2013-07-09 21:22:00,
2013-07-09 16:32:00,94.0,63.0,-100.00,SE,125,10.0,19.0,36,0.00,,,0.00,693.000000,,2013-07-09 21:32:00,
2013-07-09 17:01:00,93.0,62.0,-100.00,SSE,154,10.0,22.0,36,0.00,,,0.00,432.000000,,2013-07-09 22:01:00,
2013-07-09 17:11:00,93.0,62.0,-100.00,SSE,154,10.0,22.0,36,0.00,,,0.00,432.000000,,2013-07-09 22:11:00,
2013-07-09 17:22:00,93.0,62.0,-100.00,SSE,154,10.0,22.0,36,0.00,,,0.00,432.000000,,2013-07-09 22:22:00,
2013-07-09 17:33:00,93.0,62.0,-100.00,SSE,154,10.0,22.0,36,0.00,,,0.00,432.000000,,2013-07-09 22:33:00,
2013-07-09 18:02:00,95.0,62.0,-100.00,SE,132,9.0,19.0,34,0.00,,,0.00,427.000000,,2013-07-09 23:02:00,
2013-07-09 18:11:00,95.0,62.0,-100.00,SE,132,9.0,19.0,34,0.00,,,0.00,427.000000,,2013-07-09 23:11:00,
2013-07-09 18:22:00,95.0,62.0,-100.00,SE,132,9.0,19.0,34,0.00,,,0.00,427.000000,,2013-07-09 23:22:00,
2013-07-09 18:33:00,95.0,62.0,-100.00,SE,132,9.0,19.0,34,0.00,,,0.00,427.000000,,2013-07-09 23:33:00,
2013-07-09 19:01:00,95.0,62.0,-100.00,South,178,10.0,18.0,34,0.00,,,0.00,406.000000,,2013-07-10 00:01:00,
2013-07-09 19:11:00,95.0,62.0,-100.00,South,178,10.0,18.0,34,0.00,,,0.00,406.000000,,2013-07-10 00:11:00,
2013-07-09 19:22:00,95.0,62.0,-100.00,South,178,10.0,18.0,34,0.00,,,0.00,406.000000,,2013-07-10 00:22:00,
2013-07-09 19:33:00,95.0,62.0,-100.00,South,178,10.0,18.0,34,0.00,,,0.00,406.000000,,2013-07-10 00:33:00,
2013-07-09 20:01:00,94.0,63.0,-100.00,South,171,10.0,15.0,36,0.00,,,0.00,212.000000,,2013-07-10 01:01:00,
2013-07-09 20:11:00,94.0,63.0,-100.00,South,171,10.0,15.0,36,0.00,,,0.00,212.000000,,2013-07-10 01:11:00,
2013-07-09 20:22:00,94.0,63.0,-100.00,South,171,10.0,15.0,36,0.00,,,0.00,212.000000,,2013-07-10 01:22:00,
2013-07-09 20:33:00,94.0,63.0,-100.00,South,171,10.0,15.0,36,0.00,,,0.00,212.000000,,2013-07-10 01:33:00,
2013-07-09 21:02:00,90.0,64.0,-100.00,SSE,160,6.0,15.0,42,0.00,,,0.00,46.000000,,2013-07-10 02:02:00,
2013-07-09 21:11:00,90.0,64.0,-100.00,SSE,160,6.0,15.0,42,0.00,,,0.00,46.000000,,2013-07-10 02:11:00,
2013-07-09 21:22:00,90.0,64.0,-100.00,SSE,160,6.0,15.0,42,0.00,,,0.00,46.000000,,2013-07-10 02:22:00,
2013-07-09 21:34:00,90.0,64.0,-100.00,SSE,160,6.0,15.0,42,0.00,,,0.00,46.000000,,2013-07-10 02:34:00,
2013-07-09 22:01:00,87.0,66.0,-100.00,South,170,8.0,16.0,50,0.00,,,0.00,1.000000,,2013-07-10 03:01:00,
2013-07-09 22:11:00,87.0,66.0,-100.00,South,170,8.0,16.0,50,0.00,,,0.00,1.000000,,2013-07-10 03:11:00,
2013-07-09 22:22:00,87.0,66.0,-100.00,South,170,8.0,16.0,50,0.00,,,0.00,1.000000,,2013-07-10 03:22:00,
2013-07-09 22:32:00,87.0,66.0,-100.00,South,170,8.0,16.0,50,0.00,,,0.00,1.000000,,2013-07-10 03:32:00,
2013-07-09 23:01:00,85.0,69.0,-100.00,SSE,161,12.0,23.0,59,0.00,,,0.00,0.000000,,2013-07-10 04:01:00,
2013-07-09 23:11:00,85.0,69.0,-100.00,SSE,161,12.0,23.0,59,0.00,,,0.00,0.000000,,2013-07-10 04:11:00,
2013-07-09 23:22:00,85.0,69.0,-100.00,SSE,161,12.0,23.0,59,0.00,,,0.00,0.000000,,2013-07-10 04:22:00,
2013-07-09 23:32:00,85.0,69.0,-100.00,SSE,161,12.0,23.0,59,0.00,,,0.00,0.000000,,2013-07-10 04:32:00,